Location: Aalen
(48.8330°N, 10.1000°E)
Time: 18:34:07
(UTC+02:00)

UNISAT 6 - Pass Details

Date: 02 April 2023
Orbit: 599 x 680 km, 97.7° (Epoch: 04 June)

Event Time Altitude Azimuth Distance (km) Brightness Sun altitude
Rises 04:25:11 0° 113° (ESE) 2,945 ? -23.4°
Reaches altitude 10° 04:28:16 10° 90° (E) 2,059 ? -23.0°
Maximum altitude 04:30:41 15° 57° (ENE) 1,792 ? -22.7°
Drops below altitude 10° 04:33:07 10° 25° (NNE) 2,093 ? -22.4°
Sets 04:36:17 0° 2° (N) 3,026 ? -22.0°
